TimeEDT,TemperatureF,Dew PointF,Humidity,Sea Level PressureIn,VisibilityMPH,Wind Direction,Wind SpeedMPH,Gust SpeedMPH,PrecipitationIn,Events,Conditions,WindDirDegrees,DateUTC
12:56 AM,73.0,71.1,93,30.15,10.0,Calm,Calm,-,N/A,,Partly Cloudy,0,2013-07-08 04:56:00
1:56 AM,73.0,71.1,93,30.15,10.0,Calm,Calm,-,N/A,,Partly Cloudy,0,2013-07-08 05:56:00
2:56 AM,72.0,71.1,97,30.15,10.0,Calm,Calm,-,N/A,,Partly Cloudy,0,2013-07-08 06:56:00
3:56 AM,72.0,71.1,97,30.14,10.0,Calm,Calm,-,N/A,,Partly Cloudy,0,2013-07-08 07:56:00
4:56 AM,71.1,70.0,96,30.15,10.0,Calm,Calm,-,N/A,,Partly Cloudy,0,2013-07-08 08:56:00
5:56 AM,71.1,70.0,96,30.15,10.0,Calm,Calm,-,N/A,,Scattered Clouds,0,2013-07-08 09:56:00
6:56 AM,71.1,70.0,96,30.17,10.0,Calm,Calm,-,N/A,,Mostly Cloudy,0,2013-07-08 10:56:00
7:56 AM,75.0,73.9,96,30.18,10.0,Calm,Calm,-,N/A,,Mostly Cloudy,0,2013-07-08 11:56:00
8:56 AM,80.1,75.0,85,30.19,10.0,Calm,Calm,-,N/A,,Mostly Cloudy,0,2013-07-08 12:56:00
9:56 AM,82.0,73.0,74,30.19,10.0,SE,3.5,-,N/A,,Mostly Cloudy,130,2013-07-08 13:56:00
10:56 AM,86.0,73.0,65,30.19,10.0,SSE,4.6,-,N/A,,Mostly Cloudy,160,2013-07-08 14:56:00
11:56 AM,87.1,73.0,63,30.19,10.0,East,6.9,-,N/A,,Mostly Cloudy,90,2013-07-08 15:56:00
12:56 PM,88.0,73.0,61,30.18,10.0,East,8.1,-,N/A,,Mostly Cloudy,80,2013-07-08 16:56:00
1:56 PM,88.0,71.1,57,30.17,10.0,Variable,3.5,-,N/A,,Mostly Cloudy,0,2013-07-08 17:56:00
2:56 PM,88.0,72.0,59,30.16,10.0,East,6.9,-,N/A,,Mostly Cloudy,100,2013-07-08 18:56:00
3:56 PM,89.1,72.0,57,30.15,10.0,ESE,9.2,17.3,N/A,,Mostly Cloudy,120,2013-07-08 19:56:00
4:56 PM,88.0,72.0,59,30.13,10.0,SE,11.5,18.4,N/A,,Mostly Cloudy,130,2013-07-08 20:56:00
5:56 PM,87.1,70.0,57,30.12,10.0,ESE,11.5,-,N/A,,Mostly Cloudy,110,2013-07-08 21:56:00
6:56 PM,86.0,70.0,59,30.13,10.0,ESE,12.7,-,N/A,,Mostly Cloudy,110,2013-07-08 22:56:00
7:56 PM,82.0,71.1,69,30.14,10.0,East,8.1,-,N/A,,Mostly Cloudy,90,2013-07-08 23:56:00
8:56 PM,80.1,73.0,79,30.14,10.0,SE,5.8,-,N/A,,Mostly Cloudy,130,2013-07-09 00:56:00
9:56 PM,79.0,73.0,82,30.17,10.0,ESE,8.1,-,N/A,,Scattered Clouds,110,2013-07-09 01:56:00
10:56 PM,75.9,73.0,91,30.18,10.0,SSE,5.8,-,N/A,,Partly Cloudy,150,2013-07-09 02:56:00
11:56 PM,75.9,73.0,91,30.19,10.0,Calm,Calm,-,N/A,,Partly Cloudy,0,2013-07-09 03:56:00